Tracking 20242 objects as of 24-Jan-2020
HD Live streaming from Space Station
objects crossing your sky now

COSMOS 2100

Track COSMOS 2100 now!
10-day predictions
COSMOS 2100 is classified as:


NORAD ID: 20804
Int'l Code: 1990-083A
Perigee: 965.0 km
Apogee: 1,017.4 km
Inclination: 82.9 °
Period: 104.8 minutes
Semi major axis: 7362 km
RCS: 2.1376 m2 (large)
Launch date: September 14, 1990
Source: Commonwealth of Independent States (former USSR) (CIS)
Launch site: PLESETSK MISSILE AND SPACE COMPLEX (PKMTR)
aabbcc
Your satellite tracking list
Your tracking list is empty




NASA's NSSDC Master Catalog

Two Line Element Set (TLE):
1 20804U 90083A   20024.19423274  .00000048  00000-0  35016-4 0  9995
2 20804  82.9394  97.3693 0035645 309.2595 106.3256 13.74330059472612
Source of the keplerian elements: AFSPC